| time (UTC) | temp C | wind direction | speed KPH | gust KPH | rain 1hr cm | rain 24hr cm | rain mn cm | humidity % | barometer mb |
| 20260509082511 | 22 | 142 | 0.0 | 0.0 | 0.00 | 0.00 | 0.00 | 91 | 1010.9 |
| 20260509082047 | 22 | 142 | 0.0 | 0.0 | 0.00 | 0.00 | 0.00 | 91 | 1010.9 |
| 20260509081537 | 22 | 142 | 0.0 | 0.0 | 0.00 | 0.00 | 0.00 | 91 | 1010.8 |
| 20260509081010 | 22 | 142 | 0.0 | 0.0 | 0.00 | 0.00 | 0.00 | 91 | 1010.8 |
| 20260509080547 | 22 | 142 | 0.0 | 0.0 | 0.00 | 0.00 | 0.00 | 91 | 1010.7 |
| 20260509080039 | 22 | 142 | 0.0 | 0.0 | 0.00 | 0.00 | 0.00 | 91 | 1010.7 |
| 20260509075507 | 22 | 142 | 0.0 | 0.0 | 0.00 | 0.00 | 0.00 | 91 | 1010.8 |
| 20260509075046 | 22 | 142 | 0.0 | 0.0 | 0.00 | 0.00 | 0.00 | 91 | 1010.9 |
| 20260509074557 | 22 | 142 | 0.0 | 0.0 | 0.00 | 0.00 | 0.00 | 91 | 1011.1 |
| 20260509074026 | 22 | 142 | 0.0 | 0.0 | 0.00 | 0.00 | 0.00 | 91 | 1011.4 |
| 20260509073607 | 22 | 142 | 0.0 | 0.0 | 0.00 | 0.00 | 0.00 | 91 | 1011.3 |
| 20260509073050 | 22 | 142 | 0.0 | 0.0 | 0.00 | 0.00 | 0.00 | 91 | 1011.2 |
| 20260509072523 | 22 | 142 | 0.0 | 0.0 | 0.00 | 0.00 | 0.00 | 91 | 1011.4 |
| 20260509072101 | 22 | 142 | 0.0 | 0.0 | 0.00 | 0.00 | 0.00 | 91 | 1011.6 |
| 20260509071555 | 22 | 142 | 0.0 | 0.0 | 0.00 | 0.00 | 0.00 | 91 | 1011.6 |
| 20260509071023 | 22 | 142 | 0.0 | 0.0 | 0.00 | 0.00 | 0.00 | 91 | 1011.4 |
| 20260509070605 | 22 | 142 | 0.0 | 0.0 | 0.00 | 0.00 | 0.00 | 91 | 1011.4 |
| 20260509070004 | 22 | 142 | 0.0 | 0.0 | 0.00 | 0.00 | 0.00 | 91 | 1011.0 |
| 20260509065539 | 22 | 142 | 0.0 | 0.0 | 0.00 | 0.00 | 0.00 | 91 | 1011.0 |
| 20260509065009 | 22 | 142 | 0.0 | 0.0 | 0.00 | 0.00 | 0.00 | 91 | 1011.2 |
| 20260509064603 | 22 | 142 | 0.0 | 0.0 | 0.00 | 0.00 | 0.00 | 91 | 1011.3 |
| 20260509064036 | 22 | 142 | 0.0 | 0.0 | 0.00 | 0.00 | 0.00 | 91 | 1011.1 |
| 20260509063506 | 22 | 142 | 0.0 | 0.0 | 0.00 | 0.00 | 0.00 | 91 | 1011.3 |
| 20260509063013 | 22 | 142 | 0.0 | 0.0 | 0.00 | 0.00 | 0.00 | 91 | 1011.3 |
| 20260509062553 | 22 | 142 | 1.6 | 0.0 | 0.00 | 0.00 | 0.00 | 91 | 1011.3 |
| 20260509062025 | 22 | 142 | 1.6 | 0.0 | 0.00 | 0.00 | 0.00 | 91 | 1011.4 |
| 20260509061528 | 22 | 142 | 1.6 | 0.0 | 0.00 | 0.00 | 0.00 | 91 | 1011.2 |
| 20260509061105 | 22 | 142 | 1.6 | 0.0 | 0.00 | 0.00 | 0.00 | 91 | 1011.2 |
| 20260509060541 | 22 | 142 | 0.0 | 0.0 | 0.00 | 0.00 | 0.00 | 91 | 1011.2 |
| 20260509060059 | 22 | 142 | 1.6 | 0.0 | 0.00 | 0.00 | 0.00 | 91 | 1011.3 |
| 20260509055512 | 22 | 142 | 0.0 | 0.0 | 0.00 | 0.00 | 0.00 | 91 | 1011.4 |
| 20260509055050 | 22 | 142 | 0.0 | 0.0 | 0.00 | 0.00 | 0.00 | 91 | 1011.3 |
| 20260509054602 | 22 | 142 | 0.0 | 0.0 | 0.00 | 0.00 | 0.00 | 91 | 1011.0 |
| 20260509054026 | 22 | 142 | 0.0 | 0.0 | 0.00 | 0.00 | 0.00 | 91 | 1010.6 |
| 20260509053601 | 22 | 142 | 0.0 | 0.0 | 0.00 | 0.00 | 0.00 | 91 | 1010.4 |
| 20260509053049 | 22 | 142 | 1.6 | 0.0 | 0.00 | 0.00 | 0.00 | 91 | 1010.2 |
| 20260509052521 | 22 | 142 | 1.6 | 0.0 | 0.00 | 0.00 | 0.00 | 91 | 1010.1 |
| 20260509051556 | 22 | 142 | 0.0 | 0.0 | 0.00 | 0.00 | 0.00 | 91 | 1010.1 |
| 20260509051029 | 22 | 142 | 0.0 | 0.0 | 0.00 | 0.00 | 0.00 | 91 | 1010.0 |
| 20260509050502 | 22 | 142 | 0.0 | 0.0 | 0.00 | 0.00 | 0.03 | 91 | 1009.9 |
| 20260509050006 | 22 | 142 | 0.0 | 0.0 | 0.00 | 0.00 | 0.03 | 91 | 1009.9 |
| 20260509045540 | 22 | 142 | 1.6 | 0.0 | 0.00 | 0.00 | 0.03 | 91 | 1009.8 |
| 20260509045016 | 22 | 142 | 1.6 | 0.0 | 0.00 | 0.00 | 0.03 | 91 | 1009.9 |
| 20260509044517 | 22 | 142 | 3.2 | 0.0 | 0.00 | 0.00 | 0.03 | 91 | 1010.0 |
| 20260509044056 | 22 | 142 | 3.2 | 0.0 | 0.00 | 0.00 | 0.03 | 91 | 1010.1 |
| 20260509043528 | 22 | 142 | 1.6 | 0.0 | 0.00 | 0.00 | 0.03 | 91 | 1010.1 |
| 20260509043033 | 22 | 142 | 0.0 | 0.0 | 0.00 | 0.00 | 0.03 | 91 | 1010.3 |
| 20260509042503 | 22 | 142 | 0.0 | 0.0 | 0.00 | 0.00 | 0.03 | 91 | 1010.5 |
| 20260509042039 | 22 | 142 | 0.0 | 0.0 | 0.00 | 0.00 | 0.03 | 91 | 1010.4 |
| 20260509041543 | 22 | 142 | 0.0 | 0.0 | 0.00 | 0.00 | 0.03 | 91 | 1010.5 |
| 20260509041012 | 22 | 142 | 1.6 | 0.0 | 0.00 | 0.00 | 0.03 | 91 | 1010.5 |
| 20260509040548 | 22 | 142 | 1.6 | 0.0 | 0.00 | 0.00 | 0.03 | 91 | 1010.4 |
| 20260509040040 | 22 | 142 | 1.6 | 0.0 | 0.00 | 0.00 | 0.03 | 91 | 1010.4 |
| 20260509035510 | 22 | 142 | 1.6 | 0.0 | 0.00 | 0.00 | 0.03 | 91 | 1010.4 |
| 20260509035052 | 22 | 142 | 1.6 | 0.0 | 0.00 | 0.00 | 0.03 | 91 | 1010.4 |
| 20260509034536 | 22 | 142 | 0.0 | 0.0 | 0.00 | 0.00 | 0.03 | 90 | 1010.4 |
| 20260509034012 | 22 | 142 | 1.6 | 0.0 | 0.00 | 0.00 | 0.03 | 90 | 1010.5 |
| 20260509033551 | 22 | 142 | 1.6 | 0.0 | 0.00 | 0.00 | 0.03 | 90 | 1010.3 |
| 20260509033059 | 22 | 142 | 1.6 | 0.0 | 0.00 | 0.00 | 0.03 | 90 | 1010.3 |
| 20260509032535 | 22 | 142 | 0.0 | 0.0 | 0.00 | 0.00 | 0.03 | 90 | 1010.2 |
| 20260509032004 | 22 | 142 | 0.0 | 0.0 | 0.00 | 0.00 | 0.03 | 90 | 1010.2 |
| 20260509031506 | 22 | 142 | 1.6 | 0.0 | 0.00 | 0.00 | 0.03 | 90 | 1010.2 |
| 20260509031044 | 22 | 142 | 3.2 | 0.0 | 0.00 | 0.00 | 0.03 | 90 | 1010.1 |
| 20260509030520 | 22 | 142 | 3.2 | 0.0 | 0.00 | 0.00 | 0.03 | 90 | 1009.9 |
| 20260509030033 | 22 | 142 | 3.2 | 0.0 | 0.00 | 0.00 | 0.03 | 90 | 1009.8 |
| 20260509025559 | 22 | 140 | 1.6 | 0.0 | 0.00 | 0.00 | 0.03 | 90 | 1009.8 |
| 20260509025029 | 22 | 140 | 1.6 | 0.0 | 0.00 | 0.00 | 0.03 | 90 | 1009.8 |
| 20260509024531 | 22 | 140 | 1.6 | 0.0 | 0.00 | 0.00 | 0.03 | 90 | 1009.7 |
| 20260509024004 | 22 | 135 | 3.2 | 0.0 | 0.00 | 0.00 | 0.03 | 90 | 1009.6 |
| 20260509023542 | 22 | 108 | 3.2 | 0.0 | 0.00 | 0.00 | 0.03 | 90 | 1009.6 |
| 20260509023059 | 22 | 84 | 3.2 | 0.0 | 0.00 | 0.00 | 0.03 | 90 | 1009.7 |
| 20260509022521 | 22 | 80 | 1.6 | 0.0 | 0.00 | 0.00 | 0.03 | 89 | 1009.6 |
| 20260509022100 | 22 | 80 | 1.6 | 0.0 | 0.00 | 0.00 | 0.03 | 89 | 1009.6 |
| 20260509021602 | 22 | 80 | 0.0 | 0.0 | 0.00 | 0.00 | 0.03 | 89 | 1009.6 |
| 20260509021035 | 22 | 80 | 0.0 | 0.0 | 0.00 | 0.00 | 0.03 | 88 | 1009.6 |
| 20260509020508 | 22 | 80 | 0.0 | 0.0 | 0.00 | 0.00 | 0.03 | 88 | 1009.5 |
| 20260509020059 | 22 | 80 | 0.0 | 0.0 | 0.00 | 0.00 | 0.03 | 88 | 1009.4 |
| 20260509015530 | 22 | 80 | 0.0 | 0.0 | 0.00 | 0.00 | 0.03 | 88 | 1009.3 |
| 20260509015004 | 22 | 80 | 0.0 | 0.0 | 0.00 | 0.00 | 0.03 | 87 | 1009.2 |
| 20260509014558 | 22 | 80 | 0.0 | 0.0 | 0.00 | 0.00 | 0.03 | 87 | 1009.3 |
| 20260509014031 | 22 | 80 | 0.0 | 0.0 | 0.00 | 0.00 | 0.03 | 87 | 1009.1 |
| 20260509013504 | 23 | 80 | 0.0 | 0.0 | 0.00 | 0.00 | 0.03 | 86 | 1009.2 |
| 20260509013014 | 23 | 80 | 0.0 | 0.0 | 0.00 | 0.00 | 0.03 | 86 | 1009.1 |
| 20260509012550 | 23 | 80 | 0.0 | 0.0 | 0.00 | 0.00 | 0.03 | 86 | 1009.1 |
| 20260509012023 | 23 | 80 | 1.6 | 0.0 | 0.00 | 0.00 | 0.03 | 85 | 1009.1 |
| 20260509011524 | 23 | 80 | 1.6 | 0.0 | 0.00 | 0.00 | 0.03 | 85 | 1009.1 |
| 20260509011106 | 23 | 79 | 1.6 | 0.0 | 0.00 | 0.00 | 0.03 | 85 | 1009.0 |
| 20260509010536 | 23 | 79 | 0.0 | 0.0 | 0.00 | 0.00 | 0.03 | 85 | 1009.0 |
| 20260509010041 | 23 | 79 | 1.6 | 0.0 | 0.00 | 0.00 | 0.03 | 85 | 1009.1 |
| 20260509005513 | 23 | 79 | 1.6 | 0.0 | 0.00 | 0.00 | 0.03 | 84 | 1009.1 |
| 20260509005051 | 23 | 71 | 1.6 | 0.0 | 0.00 | 0.00 | 0.03 | 84 | 1009.1 |
| 20260509004556 | 23 | 70 | 1.6 | 0.0 | 0.00 | 0.00 | 0.03 | 84 | 1009.1 |
| 20260509004029 | 23 | 80 | 1.6 | 0.0 | 0.00 | 0.00 | 0.03 | 84 | 1009.2 |
| 20260509003605 | 23 | 55 | 1.6 | 0.0 | 0.00 | 0.00 | 0.03 | 84 | 1009.1 |
| 20260509003059 | 23 | 71 | 1.6 | 0.0 | 0.00 | 0.00 | 0.03 | 83 | 1009.1 |
| 20260509002525 | 23 | 84 | 1.6 | 0.0 | 0.00 | 0.00 | 0.03 | 83 | 1009.1 |
| 20260509002106 | 23 | 82 | 3.2 | 0.0 | 0.00 | 0.00 | 0.03 | 83 | 1009.1 |
| 20260509001507 | 24 | 73 | 3.2 | 0.0 | 0.00 | 0.00 | 0.03 | 82 | 1009.1 |
| 20260509001042 | 24 | 71 | 1.6 | 0.0 | 0.00 | 0.00 | 0.03 | 82 | 1009.2 |
| 20260509000512 | 24 | 90 | 1.6 | 0.0 | 0.00 | 0.00 | 0.03 | 82 | 1009.2 |
| 20260509000032 | 24 | 107 | 1.6 | 0.0 | 0.00 | 0.00 | 0.03 | 82 | 1009.3 |
| 20260508235559 | 24 | 70 | 1.6 | 0.0 | 0.00 | 0.00 | 0.03 | 82 | 1009.3 |
| 20260508235029 | 24 | 69 | 1.6 | 0.0 | 0.00 | 0.00 | 0.03 | 82 | 1009.4 |
| 20260508234538 | 24 | 68 | 1.6 | 0.0 | 0.00 | 0.00 | 0.03 | 81 | 1009.3 |
| 20260508234003 | 24 | 68 | 1.6 | 0.0 | 0.00 | 0.00 | 0.03 | 81 | 1009.3 |
| 20260508233543 | 24 | 68 | 3.2 | 0.0 | 0.00 | 0.00 | 0.03 | 81 | 1009.3 |
| 20260508233042 | 25 | 77 | 3.2 | 0.0 | 0.00 | 0.00 | 0.03 | 80 | 1009.3 |
| 20260508232515 | 25 | 66 | 1.6 | 0.0 | 0.00 | 0.00 | 0.03 | 80 | 1009.3 |
| 20260508232054 | 25 | 77 | 1.6 | 0.0 | 0.00 | 0.00 | 0.03 | 80 | 1009.3 |
| 20260508231540 | 25 | 73 | 1.6 | 0.0 | 0.00 | 0.00 | 0.03 | 80 | 1009.2 |
| 20260508231016 | 25 | 143 | 1.6 | 0.0 | 0.00 | 0.00 | 0.03 | 79 | 1009.3 |
| 20260508230555 | 25 | 74 | 1.6 | 0.0 | 0.00 | 0.00 | 0.03 | 79 | 1009.3 |
| 20260508230108 | 25 | 71 | 1.6 | 0.0 | 0.00 | 0.00 | 0.03 | 79 | 1009.2 |
| 20260508225533 | 25 | 69 | 3.2 | 0.0 | 0.00 | 0.00 | 0.03 | 79 | 1009.2 |
| 20260508225003 | 25 | 130 | 1.6 | 0.0 | 0.00 | 0.00 | 0.03 | 78 | 1009.3 |
| 20260508224508 | 25 | 130 | 1.6 | 0.0 | 0.00 | 0.00 | 0.03 | 78 | 1009.3 |
| 20260508224047 | 25 | 130 | 1.6 | 0.0 | 0.00 | 0.00 | 0.03 | 78 | 1009.3 |
| 20260508223523 | 25 | 130 | 3.2 | 0.0 | 0.00 | 0.00 | 0.03 | 78 | 1009.3 |
| 20260508223031 | 25 | 131 | 3.2 | 0.0 | 0.00 | 0.00 | 0.03 | 77 | 1009.3 |
| 20260508222603 | 25 | 127 | 3.2 | 0.0 | 0.00 | 0.00 | 0.03 | 76 | 1009.3 |
| 20260508222034 | 25 | 72 | 3.2 | 0.0 | 0.00 | 0.00 | 0.03 | 76 | 1009.4 |
| 20260508221539 | 26 | 81 | 3.2 | 0.0 | 0.00 | 0.00 | 0.03 | 75 | 1009.4 |
| 20260508221013 | 26 | 56 | 3.2 | 0.0 | 0.00 | 0.00 | 0.03 | 74 | 1009.4 |
| 20260508220552 | 26 | 37 | 3.2 | 0.0 | 0.00 | 0.00 | 0.03 | 74 | 1009.4 |
| 20260508220036 | 26 | 74 | 3.2 | 0.0 | 0.00 | 0.00 | 0.03 | 74 | 1009.6 |
| 20260508215508 | 26 | 73 | 3.2 | 0.0 | 0.00 | 0.00 | 0.03 | 74 | 1009.6 |
| 20260508215045 | 26 | 80 | 3.2 | 0.0 | 0.00 | 0.00 | 0.03 | 74 | 1009.7 |
| 20260508214600 | 26 | 92 | 3.2 | 0.0 | 0.00 | 0.00 | 0.03 | 74 | 1009.8 |
| 20260508214026 | 26 | 67 | 3.2 | 0.0 | 0.00 | 0.00 | 0.03 | 77 | 1009.7 |
| 20260508213603 | 26 | 86 | 3.2 | 0.0 | 0.00 | 0.00 | 0.03 | 74 | 1009.7 |
| 20260508213008 | 26 | 51 | 4.8 | 0.0 | 0.00 | 0.00 | 0.03 | 76 | 1009.8 |
| 20260508212648 | 25 | 92 | 3.2 | 0.0 | 0.00 | 0.00 | 0.03 | 76 | 1009.8 |
| 20260508212004 | 26 | 148 | 3.2 | 0.0 | 0.00 | 0.00 | 0.03 | 75 | 1009.9 |
| 20260508211557 | 26 | 131 | 3.2 | 0.0 | 0.00 | 0.00 | 0.03 | 73 | 1010.1 |
| 20260508211034 | 26 | 128 | 3.2 | 0.0 | 0.00 | 0.00 | 0.03 | 75 | 1010.1 |
| 20260508210505 | 25 | 133 | 1.6 | 0.0 | 0.00 | 0.00 | 0.03 | 77 | 1010.1 |
| 20260508210113 | 25 | 137 | 1.6 | 0.0 | 0.00 | 0.00 | 0.03 | 74 | 1010.3 |
| 20260508205538 | 25 | 82 | 1.6 | 0.0 | 0.00 | 0.00 | 0.03 | 74 | 1010.5 |
| 20260508205013 | 25 | 76 | 3.2 | 0.0 | 0.00 | 0.00 | 0.03 | 75 | 1010.6 |
| 20260508204606 | 25 | 75 | 3.2 | 0.0 | 0.00 | 0.00 | 0.03 | 76 | 1010.5 |
| 20260508204033 | 25 | 66 | 3.2 | 0.0 | 0.00 | 0.00 | 0.03 | 76 | 1010.6 |
| 20260508203503 | 25 | 86 | 3.2 | 0.0 | 0.00 | 0.00 | 0.03 | 75 | 1010.7 |
| 20260508203009 | 25 | 67 | 4.8 | 0.0 | 0.00 | 0.00 | 0.03 | 74 | 1010.9 |
| 20260508202547 | 25 | 138 | 3.2 | 0.0 | 0.00 | 0.00 | 0.03 | 74 | 1010.9 |
| 20260508202016 | 25 | 58 | 3.2 | 0.0 | 0.00 | 0.00 | 0.03 | 76 | 1011.0 |
| 20260508201525 | 25 | 60 | 4.8 | 0.0 | 0.00 | 0.00 | 0.03 | 76 | 1011.0 |
| 20260508201059 | 25 | 50 | 4.8 | 0.0 | 0.00 | 0.00 | 0.03 | 74 | 1011.0 |
| 20260508200529 | 25 | 55 | 4.8 | 0.0 | 0.00 | 0.00 | 0.03 | 76 | 1011.1 |
| 20260508200036 | 25 | 143 | 3.2 | 0.0 | 0.00 | 0.00 | 0.03 | 76 | 1011.2 |
| 20260508195506 | 25 | 98 | 1.6 | 0.0 | 0.00 | 0.00 | 0.03 | 76 | 1011.3 |
| 20260508195045 | 24 | 138 | 1.6 | 0.0 | 0.00 | 0.00 | 0.03 | 77 | 1011.3 |
| 20260508194618 | 24 | 182 | 3.2 | 0.0 | 0.00 | 0.00 | 0.03 | 75 | 1011.4 |
| 20260508194029 | 24 | 72 | 3.2 | 0.0 | 0.00 | 0.00 | 0.03 | 77 | 1011.5 |
| 20260508193502 | 24 | 135 | 3.2 | 0.0 | 0.00 | 0.00 | 0.03 | 77 | 1011.7 |
| 20260508193014 | 24 | 142 | 3.2 | 0.0 | 0.00 | 0.00 | 0.03 | 76 | 1011.6 |
| 20260508192546 | 23 | 59 | 3.2 | 0.0 | 0.00 | 0.00 | 0.03 | 77 | 1011.6 |
| 20260508192021 | 23 | 115 | 3.2 | 0.0 | 0.00 | 0.00 | 0.03 | 76 | 1011.6 |
| 20260508191525 | 23 | 155 | 3.2 | 0.0 | 0.00 | 0.00 | 0.03 | 77 | 1011.8 |
| 20260508191105 | 24 | 156 | 1.6 | 0.0 | 0.00 | 0.00 | 0.03 | 75 | 1011.9 |
| 20260508190541 | 23 | 129 | 3.2 | 0.0 | 0.00 | 0.00 | 0.03 | 77 | 1011.9 |
| 20260508190046 | 23 | 52 | 3.2 | 0.0 | 0.00 | 0.00 | 0.03 | 76 | 1012.0 |
| 20260508185516 | 23 | 73 | 1.6 | 0.0 | 0.00 | 0.00 | 0.03 | 78 | 1012.0 |
| 20260508185057 | 23 | 84 | 1.6 | 0.0 | 0.00 | 0.00 | 0.03 | 78 | 1012.1 |
| 20260508184541 | 23 | 71 | 1.6 | 0.0 | 0.00 | 0.00 | 0.03 | 79 | 1012.2 |
| 20260508184015 | 23 | 71 | 1.6 | 0.0 | 0.00 | 0.00 | 0.03 | 78 | 1012.3 |
| 20260508183550 | 23 | 62 | 1.6 | 0.0 | 0.00 | 0.00 | 0.03 | 79 | 1012.3 |
| 20260508183056 | 22 | 74 | 1.6 | 0.0 | 0.00 | 0.00 | 0.03 | 80 | 1012.3 |
| 20260508182529 | 22 | 78 | 1.6 | 0.0 | 0.00 | 0.00 | 0.03 | 79 | 1012.4 |
| 20260508182104 | 22 | 71 | 0.0 | 0.0 | 0.00 | 0.00 | 0.03 | 80 | 1012.5 |
| 20260508181504 | 22 | 71 | 1.6 | 0.0 | 0.00 | 0.00 | 0.03 | 79 | 1012.6 |
| 20260508181039 | 22 | 71 | 3.2 | 0.0 | 0.00 | 0.00 | 0.03 | 78 | 1012.6 |
| 20260508180512 | 22 | 71 | 1.6 | 0.0 | 0.00 | 0.00 | 0.03 | 80 | 1012.7 |
| 20260508180014 | 22 | 278 | 1.6 | 0.0 | 0.00 | 0.00 | 0.03 | 80 | 1012.7 |
| 20260508175553 | 22 | 278 | 1.6 | 0.0 | 0.00 | 0.00 | 0.03 | 80 | 1012.7 |
| 20260508175029 | 22 | 272 | 1.6 | 0.0 | 0.00 | 0.00 | 0.03 | 79 | 1012.7 |
| 20260508174526 | 22 | 66 | 1.6 | 0.0 | 0.00 | 0.00 | 0.03 | 80 | 1012.8 |
| 20260508174105 | 22 | 154 | 1.6 | 0.0 | 0.00 | 0.00 | 0.03 | 80 | 1012.8 |
| 20260508173542 | 22 | 78 | 1.6 | 0.0 | 0.00 | 0.00 | 0.03 | 82 | 1012.8 |
| 20260508173039 | 21 | 98 | 1.6 | 0.0 | 0.00 | 0.00 | 0.03 | 81 | 1012.9 |
| 20260508172505 | 21 | 70 | 1.6 | 0.0 | 0.00 | 0.00 | 0.03 | 82 | 1013.0 |
| 20260508172043 | 21 | 40 | 1.6 | 0.0 | 0.00 | 0.00 | 0.03 | 81 | 1013.1 |
| 20260508171546 | 21 | 165 | 1.6 | 0.0 | 0.00 | 0.00 | 0.03 | 83 | 1013.1 |
| 20260508171022 | 20 | 166 | 1.6 | 0.0 | 0.00 | 0.00 | 0.03 | 83 | 1013.1 |
| 20260508170601 | 20 | 166 | 1.6 | 0.0 | 0.00 | 0.00 | 0.03 | 82 | 1013.3 |
| 20260508170106 | 20 | 166 | 0.0 | 0.0 | 0.00 | 0.00 | 0.03 | 82 | 1013.5 |
| 20260508165538 | 20 | 166 | 0.0 | 0.0 | 0.00 | 0.00 | 0.03 | 82 | 1013.7 |
| 20260508165009 | 20 | 166 | 0.0 | 0.0 | 0.00 | 0.00 | 0.03 | 83 | 1013.8 |
| 20260508164517 | 20 | 166 | 1.6 | 0.0 | 0.00 | 0.00 | 0.03 | 81 | 1013.8 |
| 20260508164050 | 20 | 166 | 1.6 | 0.0 | 0.00 | 0.00 | 0.03 | 81 | 1014.0 |
| 20260508163523 | 20 | 166 | 0.0 | 0.0 | 0.00 | 0.00 | 0.03 | 83 | 1013.8 |
| 20260508163026 | 20 | 152 | 0.0 | 0.0 | 0.00 | 0.00 | 0.03 | 83 | 1013.9 |
| 20260508162602 | 20 | 152 | 0.0 | 0.0 | 0.00 | 0.00 | 0.03 | 83 | 1014.0 |
| 20260508162034 | 20 | 152 | 0.0 | 0.0 | 0.00 | 0.00 | 0.03 | 83 | 1014.0 |
| 20260508161542 | 19 | 152 | 0.0 | 0.0 | 0.00 | 0.00 | 0.03 | 83 | 1014.1 |
| 20260508161016 | 19 | 152 | 1.6 | 0.0 | 0.00 | 0.00 | 0.03 | 83 | 1014.1 |
| 20260508160552 | 19 | 152 | 1.6 | 0.0 | 0.00 | 0.00 | 0.03 | 84 | 1014.1 |
| 20260508160058 | 19 | 152 | 1.6 | 0.0 | 0.00 | 0.00 | 0.03 | 83 | 1014.2 |
| 20260508155533 | 19 | 152 | 1.6 | 0.0 | 0.00 | 0.00 | 0.03 | 84 | 1014.3 |
| 20260508155002 | 18 | 152 | 1.6 | 0.0 | 0.00 | 0.00 | 0.03 | 83 | 1014.3 |
| 20260508154503 | 19 | 152 | 1.6 | 0.0 | 0.00 | 0.00 | 0.03 | 83 | 1014.4 |
| 20260508154039 | 18 | 152 | 1.6 | 0.0 | 0.00 | 0.00 | 0.03 | 83 | 1014.4 |
| 20260508153513 | 18 | 152 | 1.6 | 0.0 | 0.00 | 0.00 | 0.03 | 84 | 1014.5 |
| 20260508153104 | 18 | 152 | 1.6 | 0.0 | 0.00 | 0.00 | 0.03 | 83 | 1014.4 |
| 20260508152537 | 18 | 152 | 3.2 | 0.0 | 0.00 | 0.00 | 0.03 | 83 | 1014.3 |
| 20260508152009 | 19 | 152 | 1.6 | 0.0 | 0.00 | 0.00 | 0.03 | 84 | 1014.3 |
| 20260508151609 | 18 | 151 | 1.6 | 0.0 | 0.00 | 0.00 | 0.03 | 84 | 1014.3 |
| 20260508151036 | 18 | 152 | 3.2 | 0.0 | 0.00 | 0.00 | 0.03 | 84 | 1014.3 |
| 20260508150510 | 18 | 152 | 3.2 | 0.0 | 0.00 | 0.00 | 0.03 | 83 | 1014.3 |
| 20260508150013 | 18 | 152 | 3.2 | 0.0 | 0.00 | 0.00 | 0.03 | 83 | 1014.3 |
| 20260508145550 | 18 | 152 | 3.2 | 0.0 | 0.00 | 0.00 | 0.03 | 84 | 1014.3 |
| 20260508145023 | 18 | 152 | 1.6 | 0.0 | 0.00 | 0.00 | 0.03 | 84 | 1014.3 |
| 20260508144525 | 18 | 153 | 1.6 | 0.0 | 0.00 | 0.00 | 0.03 | 85 | 1014.3 |
| 20260508144104 | 18 | 153 | 1.6 | 0.0 | 0.00 | 0.00 | 0.03 | 84 | 1014.3 |
| 20260508143537 | 18 | 153 | 0.0 | 0.0 | 0.00 | 0.00 | 0.03 | 85 | 1014.2 |
| 20260508143029 | 18 | 153 | 0.0 | 0.0 | 0.00 | 0.00 | 0.03 | 85 | 1014.3 |
| 20260508142502 | 18 | 153 | 1.6 | 0.0 | 0.00 | 0.00 | 0.03 | 86 | 1014.3 |
| 20260508142042 | 18 | 153 | 1.6 | 0.0 | 0.00 | 0.00 | 0.03 | 86 | 1014.4 |
| 20260508141547 | 17 | 153 | 1.6 | 0.0 | 0.00 | 0.00 | 0.03 | 87 | 1014.4 |
| 20260508141019 | 17 | 153 | 1.6 | 0.0 | 0.00 | 0.00 | 0.03 | 86 | 1014.3 |
| 20260508140557 | 17 | 154 | 1.6 | 0.0 | 0.00 | 0.00 | 0.03 | 87 | 1014.4 |
| 20260508140044 | 17 | 155 | 1.6 | 0.0 | 0.00 | 0.00 | 0.03 | 88 | 1014.3 |
| 20260508135522 | 17 | 155 | 0.0 | 0.0 | 0.00 | 0.00 | 0.03 | 89 | 1014.1 |
| 20260508135059 | 17 | 163 | 0.0 | 0.0 | 0.00 | 0.00 | 0.03 | 90 | 1014.3 |
| 20260508134544 | 16 | 163 | 1.6 | 0.0 | 0.00 | 0.00 | 0.03 | 89 | 1014.4 |
| 20260508134020 | 16 | 163 | 1.6 | 0.0 | 0.00 | 0.00 | 0.03 | 89 | 1014.7 |
| 20260508133556 | 16 | 163 | 1.6 | 0.0 | 0.00 | 0.00 | 0.03 | 90 | 1014.7 |
| 20260508133121 | 16 | 163 | 0.0 | 0.0 | 0.00 | 0.00 | 0.03 | 90 | 1014.7 |
| 20260508132530 | 16 | 71 | 0.0 | 0.0 | 0.00 | 0.00 | 0.03 | 91 | 1014.6 |
| 20260508132106 | 16 | 71 | 0.0 | 0.0 | 0.00 | 0.00 | 0.03 | 91 | 1014.8 |
| 20260508131503 | 16 | 71 | 0.0 | 0.0 | 0.00 | 0.00 | 0.03 | 91 | 1014.9 |
| 20260508131042 | 15 | 71 | 0.0 | 0.0 | 0.00 | 0.00 | 0.03 | 91 | 1014.9 |
| 20260508130511 | 15 | 71 | 0.0 | 0.0 | 0.00 | 0.00 | 0.03 | 91 | 1014.8 |
| 20260508130021 | 15 | 71 | 0.0 | 0.0 | 0.00 | 0.00 | 0.03 | 91 | 1014.7 |
| 20260508125552 | 15 | 71 | 0.0 | 0.0 | 0.00 | 0.00 | 0.03 | 91 | 1014.8 |
| 20260508125025 | 15 | 71 | 0.0 | 0.0 | 0.00 | 0.00 | 0.03 | 91 | 1014.7 |
| 20260508124526 | 15 | 71 | 0.0 | 0.0 | 0.00 | 0.00 | 0.03 | 92 | 1014.7 |
| 20260508124106 | 15 | 71 | 0.0 | 0.0 | 0.00 | 0.00 | 0.03 | 92 | 1014.7 |
| 20260508123535 | 15 | 71 | 0.0 | 0.0 | 0.00 | 0.00 | 0.03 | 92 | 1014.8 |
| 20260508123053 | 15 | 71 | 0.0 | 0.0 | 0.00 | 0.00 | 0.03 | 92 | 1014.8 |
| 20260508122511 | 15 | 71 | 0.0 | 0.0 | 0.00 | 0.00 | 0.03 | 92 | 1014.8 |
| 20260508122049 | 15 | 71 | 0.0 | 0.0 | 0.00 | 0.00 | 0.03 | 92 | 1014.8 |
| 20260508121558 | 15 | 71 | 0.0 | 0.0 | 0.00 | 0.00 | 0.03 | 92 | 1014.9 |
| 20260508121030 | 15 | 71 | 0.0 | 0.0 | 0.00 | 0.00 | 0.03 | 92 | 1015.0 |
| 20260508120606 | 15 | 71 | 0.0 | 0.0 | 0.00 | 0.00 | 0.03 | 92 | 1015.1 |
| 20260508120003 | 15 | 71 | 0.0 | 0.0 | 0.00 | 0.00 | 0.03 | 92 | 1015.0 |
| 20260508115543 | 15 | 71 | 0.0 | 0.0 | 0.00 | 0.00 | 0.03 | 92 | 1015.0 |
| 20260508115012 | 15 | 71 | 0.0 | 0.0 | 0.00 | 0.00 | 0.03 | 92 | 1015.1 |
| 20260508114517 | 15 | 71 | 0.0 | 0.0 | 0.00 | 0.00 | 0.03 | 92 | 1015.4 |
| 20260508114052 | 15 | 71 | 0.0 | 0.0 | 0.00 | 0.00 | 0.03 | 92 | 1015.6 |
| 20260508113525 | 15 | 71 | 0.0 | 0.0 | 0.00 | 0.00 | 0.03 | 92 | 1015.5 |
| 20260508113028 | 15 | 71 | 0.0 | 0.0 | 0.00 | 0.00 | 0.03 | 92 | 1015.4 |
| 20260508112606 | 15 | 71 | 0.0 | 0.0 | 0.00 | 0.00 | 0.03 | 92 | 1015.4 |
| 20260508112036 | 15 | 71 | 0.0 | 0.0 | 0.00 | 0.00 | 0.03 | 92 | 1015.2 |
| 20260508111541 | 15 | 71 | 0.0 | 0.0 | 0.00 | 0.00 | 0.03 | 92 | 1015.1 |
| 20260508111011 | 15 | 71 | 0.0 | 0.0 | 0.00 | 0.00 | 0.03 | 92 | 1015.2 |
| 20260508110550 | 15 | 71 | 0.0 | 0.0 | 0.00 | 0.00 | 0.03 | 92 | 1015.1 |
| 20260508110043 | 15 | 71 | 0.0 | 0.0 | 0.00 | 0.00 | 0.03 | 92 | 1015.1 |
| 20260508105506 | 15 | 71 | 0.0 | 0.0 | 0.00 | 0.00 | 0.03 | 92 | 1015.1 |
| 20260508105044 | 15 | 71 | 0.0 | 0.0 | 0.00 | 0.00 | 0.03 | 92 | 1015.0 |
| 20260508104553 | 15 | 71 | 0.0 | 0.0 | 0.00 | 0.00 | 0.03 | 92 | 1015.0 |
| 20260508104029 | 15 | 71 | 0.0 | 0.0 | 0.00 | 0.00 | 0.03 | 91 | 1015.0 |
| 20260508103606 | 15 | 71 | 0.0 | 0.0 | 0.00 | 0.00 | 0.03 | 91 | 1015.2 |
| 20260508103013 | 15 | 71 | 0.0 | 0.0 | 0.00 | 0.00 | 0.03 | 91 | 1015.4 |
| 20260508102539 | 15 | 71 | 0.0 | 0.0 | 0.00 | 0.00 | 0.03 | 91 | 1015.5 |
| 20260508102012 | 15 | 71 | 0.0 | 0.0 | 0.00 | 0.00 | 0.03 | 91 | 1015.4 |
| 20260508101516 | 15 | 71 | 0.0 | 0.0 | 0.00 | 0.00 | 0.03 | 91 | 1015.4 |
| 20260508101059 | 15 | 71 | 0.0 | 0.0 | 0.00 | 0.00 | 0.03 | 91 | 1015.7 |
| 20260508100528 | 15 | 71 | 0.0 | 0.0 | 0.00 | 0.00 | 0.03 | 90 | 1015.6 |
| 20260508100034 | 15 | 71 | 0.0 | 0.0 | 0.00 | 0.00 | 0.03 | 90 | 1015.8 |
| 20260508095508 | 15 | 71 | 0.0 | 0.0 | 0.00 | 0.00 | 0.03 | 90 | 1015.7 |
| 20260508095042 | 15 | 71 | 0.0 | 0.0 | 0.00 | 0.00 | 0.03 | 90 | 1015.7 |
| 20260508094532 | 15 | 71 | 1.6 | 0.0 | 0.00 | 0.00 | 0.03 | 89 | 1015.9 |
| 20260508094008 | 15 | 71 | 0.0 | 0.0 | 0.00 | 0.00 | 0.00 | 88 | 1016.1 |
| 20260508093544 | 15 | 71 | 0.0 | 0.0 | 0.00 | 0.00 | 0.00 | 88 | 1016.1 |
| 20260508093032 | 15 | 71 | 1.6 | 0.0 | 0.00 | 0.00 | 0.00 | 88 | 1016.0 |
| 20260508092504 | 15 | 71 | 1.6 | 0.0 | 0.00 | 0.00 | 0.00 | 88 | 1015.8 |
| 20260508092043 | 15 | 71 | 0.0 | 0.0 | 0.00 | 0.00 | 0.00 | 88 | 1015.7 |
| 20260508091533 | 15 | 71 | 0.0 | 0.0 | 0.00 | 0.00 | 0.00 | 88 | 1015.5 |
| 20260508091007 | 15 | 71 | 0.0 | 0.0 | 0.00 | 0.00 | 0.00 | 88 | 1015.4 |
| 20260508090546 | 15 | 71 | 0.0 | 0.0 | 0.00 | 0.00 | 0.00 | 88 | 1015.4 |
| 20260508090053 | 15 | 71 | 0.0 | 0.0 | 0.00 | 0.00 | 0.00 | 88 | 1015.4 |
| 20260508085523 | 15 | 71 | 0.0 | 0.0 | 0.00 | 0.00 | 0.00 | 88 | 1015.3 |
| 20260508085105 | 15 | 71 | 0.0 | 0.0 | 0.00 | 0.00 | 0.00 | 88 | 1015.2 |
| 20260508084505 | 15 | 71 | 0.0 | 0.0 | 0.00 | 0.00 | 0.00 | 89 | 1015.0 |
| 20260508084041 | 15 | 71 | 0.0 | 0.0 | 0.00 | 0.00 | 0.00 | 89 | 1015.1 |
| 20260508083513 | 15 | 71 | 0.0 | 0.0 | 0.00 | 0.00 | 0.00 | 89 | 1015.4 |
| 20260508083014 | 15 | 71 | 0.0 | 0.0 | 0.00 | 0.00 | 0.00 | 89 | 1015.4 |